Погода в Специи

Италия     44°06′33″N   9°49′56″E
темп.,
°C
ветер,
м/с
пор.,
м/с
влажн.,
%
обл.,
%
осадки,
мм/ч
давл.,
гПа
погр.,
м
15 апреля, чт
чт1523:00+10св557299 0.0 1021288
02:00+11ссв2160100 0.1 1020243
05:00+11ссз4359100 0.3 1019381
08:00+10ссв4365100 0.4 1020995
11:00+9ссв6576100 0.1 1021598
14:00+10ссв55699 0.1 1020389
17:00+12ссз33576 0.0 1018504
20:00+11ссв66645 0.0 1018568
16 апреля, пт
пт1623:00+10ссв65696 0.0 1019328
02:00+10св55696 0.0 1018315
05:00+9ссв666785 0.0 1017268
08:00+9ссв66585 0.1 1017268
11:00+11св23446 0.0 1017561
14:00+13зюз54507 0.0 1016366
17:00+13с2450100 0.0 1015580
20:00+13ссв7857100 0.0 1015652
17 апреля, сб
сб1723:00+12ссв6763100 0.0 1015334
02:00+11ссв71063100 0.0 1014455
05:00+11ссв71061100 0.0 1013406
08:00+11ссв7962100 0.0 1013393
11:00+14св7846100 0.0 10121105
14:00+14в364717 0.0 1012425
17:00+15всв4650100 0.0 1011410
20:00+14всв4656100 0.0 1012519
18 апреля, вс
вс1823:00+12св786699 0.0 1013361
02:00+11св5562100 0.0 1013248
05:00+11св4364100 0.0 1013285
08:00+11св4464100 0.0 1014343
11:00+11юв1162100 0.0 1015427
14:00+12зюз3362100 0.0 1015591
17:00+12юз2266100 0.1 1014805
20:00+13з336680 0.2 1014853
19 апреля, пн
пн1923:00+12сз226992 0.4 1015601
02:00+12св2276100 0.6 1015239
05:00+11ссв3373100 1.0 1014249
08:00+11св336314 1.4 1014307
11:00+12юв22625 0.0 1014381
14:00+13з22585 0.0 1014396
17:00+13зюз22555 0.0 1012444
20:00+14зсз33630 0.0 1012651